Regional Weather Roundup
Issued by NWS Sioux Falls, SD

Home | Current Version | Previous Version | Text Only | Print | Product List | Glossary Off
Versions: 1 2 3 4 5 6 7 8 9 10 11 12 13 14 15 16 17 18 19 20 21 22 23 24 25 26 27 28 29 30 31 32 33 34 35 36 37 38 39 40 41 42 43 44 45 46 47 48 49 50

622
ASUS43 KFSD 220902
RWRFSD

WEATHER ROUNDUP FOR SE SOUTH DAKOTA/SW MINNESOTA/NW IOWA
NATIONAL WEATHER SERVICE SIOUX FALLS SD
400 AM CDT SUN OCT 22 2017

NOTE: "FAIR" INDICATES FEW OR NO CLOUDS BELOW 12,000 FEET WITH NO
SIGNIFICANT WEATHER AND OR OBSTRUCTIONS TO VISIBILITY.


SDZ038>040-050-052>070-221000-
SOUTHEAST SOUTH DAKOTA

CITY           SKY/WX    TMP DP  RH WIND       PRES   REMARKS
BROOKINGS      CLEAR     41  35  79 W7        29.94R
CHAMBERLAIN    CLEAR     37  31  81 SW3       29.99S
HURON          CLEAR     40  33  76 W9        29.95S
MADISON        FAIR      39  37  93 W7        29.95S
MITCHELL       CLEAR     42  33  70 W10       29.98S
SIOUX FALLS    CLEAR     39  35  86 CALM      29.97R
WINNER         FAIR      38  27  64 SW8       30.02R
YANKTON        CLEAR     39  34  82 CALM      30.00R
$$

MNZ071-072-080-081-089-090-097-098-221000-
SOUTHWEST MINNESOTA

CITY           SKY/WX    TMP DP  RH WIND       PRES   REMARKS
FAIRMONT       CLOUDY    47  40  76 W8        29.95R
JACKSON        PTCLDY    43  37  81 W6        29.97R
LUVERNE        MOCLDY    37  34  87 S3        29.98R
MARSHALL       PTCLDY    45  38  76 W9        29.93R
MONTEVIDEO     MOCLDY    45  39  81 CALM      29.91R
PIPESTONE      CLOUDY    37  34  87 W3        29.96R
REDWOOD FALLS  PTCLDY    46  38  73 SW9       29.92R
TRACY          CLOUDY    46  40  80 SW8       29.94R
WORTHINGTON    CLOUDY    43  38  82 W7        29.97R
$$

IAZ001>003-012>014-020>022-031-032-NEZ013-014-SDZ071-221000-
NORTHWEST IOWA

CITY           SKY/WX    TMP DP  RH WIND       PRES   REMARKS
CHEROKEE       CLOUDY    43  41  93 CALM      29.99R
DENISON        CLOUDY    46  43  87 CALM      30.01S
ESTHERVILLE    PTCLDY    45  41  86 W7        29.96R
LE MARS        CLOUDY    43  37  81 CALM      29.99S
ORANGE CITY    PTCLDY    43  39  87 W3        29.99R
SHELDON        CLOUDY    39  37  93 CALM      29.97R
SIOUX CITY     MOCLDY    41  38  89 CALM      30.00R
SPENCER        CLOUDY    42  39  89 SW6       29.97R
STORM LAKE     CLOUDY    45  39  81 W7        29.98S
$$

ABBREVIATIONS USED IN REMARKS
   TC - TEMPERATURE IN CELSIUS
  WCI - WIND CHILL INDEX
   HX - HEAT INDEX
  VSB - VISIBILITY





USA.gov is the U.S. government's official web portal to all federal, state and local government web resources and services.